Location: Marcé
(47.5801°N, 0.3280°W)
Time: 00:00:45
(UTC+01:00)

S-56A Canister/Altair - Pass Details

Date: 07 December 2021
Orbit: 633 x 2499 km, 38.9° (Epoch: 17 January)

Event Time Altitude Azimuth Distance (km) Brightness Sun altitude
Rises 04:41:43 0° 271° (W) 4,193 - -38.4°
Reaches altitude 10° 04:45:37 10° 258° (WSW) 2,891 - -37.7°
Maximum altitude 04:50:30 22° 210° (SSW) 1,812 - -36.9°
Drops below altitude 10° 04:54:25 10° 161° (SSE) 2,245 - -36.3°
Exits shadow 04:55:33 - 152° (SSE) 2,562 10.4 -36.1°
Sets 04:57:01 0° 144° (SE) 3,033 11.0 -35.8°
